Terminal Aerodrome Forecast
Issued by NWS

Home | Current Version | Previous Version | Text Only | Print | Product List | Glossary On
Versions: 1 2 3 4 5 6 7 8 9 10 11 12 13 14 15 16 17 18 19 20 21 22 23 24 25 26 27 28
000
FTUS43 KGLD 260726 AAA
TAFMCK
TAF AMD
KMCK 260726Z 2607/2706 28015G22KT P6SM BKN070 OVC090
     FM260900 31014G24KT P6SM SCT025 OVC090
     FM262000 33010KT P6SM BKN070
     FM270000 VRB05KT P6SM BKN050=

USA.gov is the U.S. government's official web portal to all federal, state and local government web resources and services.